SCP
0 0 0 0 0 0 0 0 0 0 0 0 0 0 0 0 0 0 0 0 0 0 0 0 0 0 0 0 0 0 0 0 0 0 0 0 0 0 0 0 0 0 0
1 0 0 0 0 0 0 0 0 0 0 0 0 0 0 0 0 0 0 0 0 0 0 0 0 0 0 0 0 0 0 0 0 0 0 0 0 0 0 0 0 0 0
1 1 0 0 0 0 0 0 0 0 0 0 0 0 0 0 0 0 0 0 0 0 0 0 0 0 0 0 0 0 0 0 0 0 0 0 0 0 0 0 0 0 0
1 1 1 0 0 0 0 0 0 0 0 0 0 0 0 0 0 0 0 0 0 0 0 0 0 0 0 0 0 0 0 0 0 0 0 0 0 0 0 0 0 0 0
1 1 1 1 0 0 0 0 0 0 0 0 0 0 0 0 0 0 0 0 0 0 0 0 0 0 0 0 0 0 0 0 0 0 0 0 0 0 0 0 0 0 0
1 1 1 1 1 1 0 0 0 0 0 0 0 0 0 0 0 0 0 0 0 0 0 0 0 0 0 0 0 0 0 0 0 0 0 0 0 0 0 0 0 0 0
1 1 1 1 1 1 0 0 0 0 0 0 0 0 0 0 0 0 0 0 0 0 0 0 0 0 0 0 0 0 0 0 0 0 0 0 0 0 0 0 0 0 0
1 1 1 1 1 1 1 0 0 0 0 0 0 0 0 0 0 0 0 0 0 0 0 0 0 0 0 0 0 0 0 0 0 0 0 0 0 0 0 0 0 0 0
1 1 1 1 1 1 1 0 0 0 0 0 0 0 0 0 0 0 0 0 0 0 0 0 0 0 0 0 0 0 0 0 0 0 0 0 0 0 0 0 0 0 0
1 1 1 1 1 1 1 1 0 0 0 0 0 0 0 0 0 0 0 0 0 0 0 0 0 0 0 0 0 0 0 0 0 0 0 0 0 0 0 0 0 0 0
1 1 1 1 1 1 1 1 0 0 0 0 0 0 0 0 0 0 0 0 0 0 0 0 0 0 0 0 0 0 0 0 0 0 0 0 0 0 0 0 0 0 0
1 1 1 1 1 1 1 1 0 0 0 0 0 0 0 0 0 0 0 0 0 0 0 0 0 0 0 0 0 0 0 0 0 0 0 0 0 0 0 0 0 0 0
0 1 1 1 1 1 1 1 0 0 0 0 0 0 0 0 0 0 0 0 0 0 0 0 0 0 0 0 0 0 0 0 0 0 0 0 0 0 0 0 0 0 0
0 0 0 1 1 1 1 1 0 0 0 0 0 0 0 0 0 0 0 0 0 0 0 0 0 0 0 0 0 0 0 0 0 0 0 0 0 0 0 0 0 0 0
0 0 0 0 0 0 0 0 0 0 0 0 0 0 0 0 0 0 0 0 0 0 0 0 0 0 0 0 0 0 0 0 0 0 0 0 0 0 0 0 0 0 0
0 0 0 0 0 0 0 0 0 0 0 0 0 0 0 0 0 0 0 0 0 0 0 0 0 0 0 0 0 0 0 0 0 0 0 0 0 0 0 0 0 0 0
0 0 0 0 0 0 0 0 0 0 0 0 0 0 0 0 0 0 0 0 0 0 0 0 0 0 0 0 0 0 0 0 0 0 0 0 0 0 0 0 0 0 0
0 0 0 0 0 0 0 0 0 0 0 0 0 0 0 0 0 0 0 0 0 0 0 0 0 0 0 0 0 0 0 0 0 0 0 0 0 0 0 0 0 0 0
0 0 0 0 0 0 0 0 0 0 0 0 0 0 0 0 0 0 0 0 0 0 0 0 0 0 0 0 0 0 0 0 0 0 0 0 0 0 0 0 0 0 0
0 0 0 0 0 0 0 0 0 0 0 0 0 0 0 0 0 0 0 0 0 0 0 0 0 0 0 0 0 0 0 0 0 0 0 0 0 0 0 0 0 0 0
0 0 0 0 0 0 0 0 0 0 0 0 0 0 0 0 0 0 0 0 0 0 0 0 0 0 0 0 0 0 0 0 0 0 0 0 0 0 0 0 0 0 0
0 0 0 0 0 0 0 0 0 0 0 0 0 0 0 0 0 0 0 0 0 0 0 0 0 0 0 0 0 0 0 0 0 0 0 0 0 0 0 0 0 0 0
0 0 0 0 0 0 0 0 0 0 0 0 0 0 0 0 0 0 0 0 0 0 0 0 0 0 0 0 0 0 0 0 0 0 0 0 0 0 0 0 0 0 0
0 0 0 0 0 0 0 0 0 0 0 0 0 0 0 0 0 0 0 0 0 0 0 0 0 0 0 0 0 0 0 0 0 0 0 0 0 0 0 0 0 0 0
0 0 0 0 0 0 0 0 0 0 0 0 0 0 0 0 0 0 0 0 0 0 0 0 0 0 0 0 0 0 0 0 0 0 0 0 0 0 0 0 0 0 0
0 0 0 0 0 0 0 0 0 0 0 0 0 0 0 0 0 0 0 0 0 0 0 0 0 0 0 0 0 0 0 0 0 0 0 0 0 0 0 0 0 0 0
Wind_Speed
3 3 3 4 5 5 6 4 6 6 6 4 4 4 4 3 6 6 5 9 9 7 7 6 6 6 6 6 6 6 7 6 7 7 7 7 7 7 7 6 6 5 5
4 3 3 3 3 3 4 5 5 4 2 2 1 1 3 3 4 8 7 7 9 8 7 7 7 7 6 6 6 6 6 6 6 7 7 6 6 6 6 5 5 4 3
4 4 3 3 2 2 3 3 4 3 2 2 2 1 1 2 3 7 8 6 6 8 8 8 7 7 7 6 6 6 6 6 6 6 6 6 6 5 5 4 4 3 2
4 3 3 2 2 2 1 2 1 1 1 1 2 2 2 2 2 4 7 7 7 6 7 9 8 7 7 7 7 7 7 6 6 6 6 6 5 4 4 4 3 3 2
4 3 3 3 3 1 1 1 1 1 1 1 2 1 2 3 3 4 5 6 8 8 6 8 9 8 8 7 7 7 7 7 6 6 6 6 5 4 4 3 3 2 2
5 4 4 5 4 2 2 1 1 1 1 0 2 1 1 2 2 2 2 3 6 9 9 8 6 6 8 8 7 7 7 7 7 7 6 6 5 4 4 3 3 2 2
6 5 4 5 4 4 4 3 2 1 0 0 0 1 1 2 3 3 2 2 3 6 10 10 7 6 5 8 8 8 8 8 8 7 7 6 6 5 4 3 3 2 1
5 6 5 5 5 4 4 4 3 2 1 1 1 1 1 2 2 2 2 2 2 3 5 9 8 9 7 5 7 10 8 8 8 8 7 6 6 5 4 3 3 2 1
5 5 5 5 5 5 5 5 5 5 3 2 2 2 2 3 1 2 3 3 2 2 3 3 6 8 10 7 7 9 9 8 7 8 7 7 6 5 4 4 3 2 1
4 4 5 5 6 5 5 6 6 5 5 3 2 2 2 2 2 1 2 1 2 2 2 1 2 3 6 7 8 11 12 9 8 8 8 7 6 6 5 4 3 2 2
3 4 5 5 6 5 6 6 6 6 5 4 3 2 1 1 1 2 2 2 1 0 0 0 0 1 3 5 7 11 14 11 10 9 8 7 7 6 5 5 4 3 3
2 2 3 4 5 5 5 6 6 7 6 6 4 3 3 2 2 2 2 1 1 1 1 0 1 1 2 3 6 12 13 11 10 8 7 7 6 6 5 5 5 4 4
2 2 3 3 3 4 5 5 6 7 7 7 6 4 3 3 2 2 2 1 1 1 1 0 0 1 2 3 4 11 11 11 10 9 7 7 6 6 5 5 4 4 4
2 2 2 2 3 4 5 5 5 6 6 6 7 6 4 4 3 3 3 3 2 2 1 1 1 1 2 3 4 7 6 10 10 9 8 7 7 6 5 4 4 3 3
3 3 2 0 2 4 5 5 4 4 5 5 6 6 4 4 4 4 3 3 4 3 2 2 1 1 1 2 4 2 3 9 10 9 8 7 7 6 5 4 3 2 2
5 4 3 2 2 1 2 3 3 3 4 4 4 5 5 4 4 4 3 3 3 3 2 1 1 1 1 2 4 1 2 8 9 8 7 7 6 5 4 3 2 2 2
5 4 4 4 3 3 2 2 2 2 3 3 3 5 5 5 4 4 3 3 3 3 3 1 1 1 1 1 1 1 2 3 4 7 6 6 5 4 3 1 1 1 2
7 6 5 5 5 5 4 4 3 2 2 3 3 3 4 4 4 4 3 4 3 3 3 3 1 1 1 1 1 1 2 3 4 6 6 5 5 4 4 4 3 1 1
8 8 7 7 6 6 5 5 4 3 3 3 3 3 3 4 4 3 3 3 3 3 2 3 2 1 1 1 1 1 2 3 4 6 7 6 7 8 7 6 5 4 3
8 8 8 8 7 7 7 6 4 3 4 4 4 4 3 3 3 4 3 3 3 3 3 3 2 2 1 1 2 2 2 2 3 4 6 7 10 11 10 9 8 7 6
9 8 8 8 7 7 7 7 4 4 4 4 4 4 4 6 6 4 3 3 4 3 3 3 2 2 2 2 2 2 3 3 3 4 5 4 5 5 6 8 9 9 8
8 8 8 8 8 8 10 11 7 4 4 4 4 4 5 6 8 9 9 7 5 4 3 3 2 3 2 2 2 3 3 3 2 2 4 5 5 6 5 5 8 10 10
7 8 8 8 8 9 13 12 11 5 4 3 4 3 4 5 5 5 7 8 8 7 5 4 4 3 2 2 3 3 3 3 3 3 5 5 4 5 4 6 11 11 11
6 6 7 7 7 10 15 14 11 5 5 5 4 4 5 5 5 5 7 7 8 7 5 5 5 4 4 3 3 3 4 5 5 3 4 4 2 3 4 4 9 11 11
5 5 6 7 7 9 14 14 10 4 5 6 6 7 6 6 8 8 7 7 7 6 9 11 10 8 9 9 6 4 4 5 4 2 2 3 3 3 3 3 5 9 9
4 5 6 6 7 7 13 14 11 4 5 5 5 7 11 9 8 7 6 6 6 4 4 5 6 6 6 7 7 4 3 4 4 2 1 3 3 3 3 2 1 2 4
Wind_Direction
209 227 209 188 193 191 191 205 219 228 222 224 212 192 166 187 141 134 139 149 146 147 151 151 144 142 141 139 137 135 137 135 131 131 130 128 125 123 123 120 116 114 111
196 216 225 208 212 204 183 194 220 239 232 223 248 172 147 173 138 140 145 152 153 153 157 158 154 151 148 144 145 145 145 145 141 139 139 135 131 128 129 132 133 131 122
205 209 211 207 212 223 214 208 225 220 209 198 206 238 180 158 153 147 149 157 160 164 164 162 160 158 157 153 150 149 149 146 145 146 145 143 142 142 144 148 153 153 148
221 201 206 211 214 218 233 212 216 226 219 212 213 198 194 160 196 162 159 166 162 165 169 169 166 166 165 163 161 158 154 152 152 151 149 149 153 155 157 161 163 169 178
233 196 203 208 207 185 204 240 181 195 225 241 249 210 188 160 196 193 183 176 161 157 161 172 168 166 169 172 172 167 164 161 158 158 156 157 159 162 161 162 170 185 207
221 207 204 204 196 178 187 213 188 182 202 199 264 252 189 172 193 206 208 171 162 162 157 164 167 176 177 174 175 172 169 168 166 166 164 160 157 159 163 167 178 194 221
219 209 206 201 196 193 186 189 183 169 199 251 275 337 314 230 196 183 208 189 179 161 157 167 177 173 176 182 178 177 178 176 173 172 169 164 160 159 161 168 177 184 190
230 218 205 195 193 193 190 189 174 162 190 191 157 143 306 314 300 187 189 208 199 162 176 177 175 170 169 167 183 180 180 180 179 176 173 168 162 161 160 157 155 156 147
230 221 204 192 195 191 190 191 184 175 188 198 168 153 169 218 270 291 207 199 210 185 201 183 177 173 167 166 169 178 173 174 179 180 176 171 167 165 162 163 162 154 144
236 226 211 201 195 195 191 193 185 176 169 195 203 186 190 161 159 262 280 214 209 196 194 195 195 173 158 156 163 169 173 175 181 184 182 181 179 180 180 180 178 180 180
237 223 213 203 198 196 196 193 184 179 177 185 188 181 205 207 206 182 251 293 318 306 135 125 116 108 129 144 158 168 171 177 181 185 187 186 187 188 190 191 198 205 210
260 237 217 199 198 192 195 195 188 185 187 188 182 182 179 175 186 182 201 222 255 288 292 142 108 102 102 114 149 163 170 175 179 183 187 186 188 192 196 201 210 222 231
292 244 237 204 198 195 193 192 190 192 187 182 180 185 189 196 180 180 190 200 219 264 303 340 130 115 110 118 128 160 174 177 180 184 189 190 190 193 200 210 224 238 250
305 299 248 206 195 195 193 190 195 195 187 184 188 187 190 196 190 184 175 166 192 233 251 260 350 68 78 99 137 161 178 182 183 187 191 194 194 195 198 209 232 256 274
352 355 359 37 198 196 190 185 190 190 182 184 188 186 183 188 188 189 180 171 171 186 220 213 206 63 86 107 143 172 169 184 185 189 193 195 195 196 196 201 219 252 278
6 14 19 28 49 101 156 165 165 169 168 177 179 183 181 181 182 178 174 174 171 168 185 194 180 165 133 148 161 176 168 172 182 185 191 191 192 192 192 201 217 238 263
11 20 30 38 47 54 69 101 126 148 164 175 182 181 180 172 169 170 164 165 169 163 174 177 153 142 146 123 140 182 155 154 159 171 176 175 175 171 156 156 199 257 272
18 24 37 41 47 49 51 62 75 102 141 149 152 147 149 147 146 148 156 162 167 168 158 163 154 141 137 126 137 158 151 145 133 146 149 147 141 125 112 101 85 61 12
23 26 34 40 45 46 43 45 49 65 81 94 106 120 126 134 144 150 154 154 156 149 137 144 146 146 128 131 118 118 117 110 124 132 123 111 107 100 92 84 75 64 54
26 30 34 39 42 43 41 35 36 50 66 72 77 88 103 118 139 153 154 151 144 140 139 138 142 144 140 140 126 124 108 99 104 113 101 100 97 88 79 73 69 66 60
27 29 36 40 38 40 34 25 23 42 64 71 70 81 94 102 99 110 123 133 135 135 141 139 138 125 124 123 140 129 114 102 83 100 102 96 91 78 68 63 62 63 64
27 31 38 43 40 36 30 28 28 30 54 69 71 77 97 101 101 96 95 95 101 119 123 123 122 120 125 129 125 123 126 122 104 99 98 87 81 73 62 60 61 66 65
30 33 37 42 43 34 32 29 25 30 51 64 67 72 90 93 96 100 94 85 70 69 93 117 115 119 123 135 130 126 126 115 113 126 104 92 83 79 71 65 68 66 64
30 31 35 37 40 33 29 26 25 43 53 63 61 58 73 73 73 83 92 80 67 53 65 83 92 82 80 86 107 120 119 101 92 88 97 99 93 88 84 70 70 70 65
28 33 37 36 41 34 27 26 22 41 58 62 61 56 57 64 66 82 96 97 90 77 72 83 91 90 80 72 78 91 102 112 111 98 73 101 120 111 101 89 75 73 69
28 39 43 42 45 42 32 30 24 32 49 59 60 57 53 56 58 80 94 98 100 103 104 93 83 75 71 67 72 88 109 118 119 110 76 94 140 135 116 113 117 86 69